SCP
0 0 -0 0 0 -0 -0 0 0 0 0 -0 0 0 0 0 0 0 0 0 0 0 0 0 0 0 0 0 0 0 0 0 0 0 0 0 0 0 0 0 0 0 0
0 0 0 0 0 0 -0 0 0 0 0 0 0 0 0 0 0 0 0 0 0 0 0 0 0 0 0 0 0 0 0 0 0 0 0 0 0 0 0 0 0 0 0
0 0 0 -0 -0 -0 -0 -0 -0 -0 -0 -0 -0 -0 -0 -0 -0 -0 -0 -0 0 0 0 0 0 0 0 0 0 0 0 0 0 0 0 0 0 0 0 0 0 0 0
0 0 0 -0 -0 -0 -0 -0 -0 -0 -0 -0 -0 -0 -0 -0 -0 -0 -0 -0 0 0 0 0 0 0 0 0 0 0 0 0 0 0 0 0 0 0 0 0 0 0 0
0 0 0 0 -0 -0 -0 -0 -0 -0 -0 -0 -0 -0 -0 -0 -0 -0 -0 -0 -0 0 0 0 0 0 0 0 0 0 0 0 0 0 0 0 0 0 0 0 0 0 0
0 0 0 0 -0 -0 0 -0 -0 -0 -0 -0 -0 -0 -0 -0 -0 -0 -0 -0 0 0 0 0 0 0 0 0 0 0 0 0 0 0 0 0 0 0 0 0 0 0 0
0 0 0 0 0 0 0 0 -0 0 0 0 0 0 0 0 0 0 0 0 0 0 0 0 0 0 0 0 0 0 0 0 0 0 0 0 0 0 0 0 0 0 0
0 0 0 0 0 0 0 0 0 0 0 0 0 0 0 0 0 0 0 0 0 0 0 0 0 0 0 0 0 0 0 0 0 0 0 0 0 0 0 0 0 0 0
0 0 0 0 0 0 0 0 0 0 0 0 0 0 0 0 0 0 0 0 0 0 0 0 0 0 0 0 0 0 0 0 0 0 0 0 0 0 0 0 0 0 0
0 0 0 0 0 0 0 0 0 0 0 0 0 0 0 0 0 0 0 0 0 0 0 0 0 0 0 0 0 0 0 0 0 0 0 0 0 0 0 0 0 0 0
0 0 0 0 0 0 0 0 0 0 0 0 0 0 0 0 0 0 0 0 0 0 0 0 0 0 0 0 0 0 0 0 0 0 0 0 0 0 0 0 0 0 0
0 0 0 0 0 0 0 0 0 0 0 0 0 0 0 0 0 0 0 0 0 0 0 0 0 0 0 0 0 0 0 0 0 0 0 0 0 0 0 0 0 0 0
0 0 0 0 0 0 0 0 0 0 0 0 0 0 0 0 0 0 0 0 0 0 0 0 0 0 0 0 0 0 0 0 0 0 0 0 0 0 0 0 0 0 0
0 0 0 0 0 0 0 0 0 0 0 0 0 0 0 0 0 0 0 0 0 0 0 0 0 0 0 0 0 0 0 0 0 0 0 0 0 0 0 0 0 0 0
0 0 0 0 0 0 0 0 0 0 0 0 0 0 0 0 0 0 0 0 0 0 0 0 0 0 0 0 0 0 0 0 0 0 0 0 0 0 0 0 0 0 0
0 0 0 0 0 0 0 0 0 0 0 0 0 0 0 0 0 0 0 0 0 0 0 0 0 0 0 0 0 0 0 0 0 0 0 0 0 0 0 0 0 0 0
0 0 0 0 0 0 0 0 0 0 0 0 0 0 0 0 0 0 0 0 0 0 0 0 0 0 0 0 0 0 0 0 0 0 0 0 0 0 0 0 0 0 0
0 0 0 0 0 0 0 0 0 0 0 0 0 0 0 0 0 0 0 0 0 0 0 0 0 0 0 0 0 0 0 0 0 0 0 0 0 0 0 0 0 0 0
0 0 0 0 0 0 0 0 0 0 0 0 0 0 0 0 0 0 0 0 0 0 0 0 0 0 0 0 0 0 0 0 0 0 0 0 0 0 0 0 0 0 0
0 0 0 0 0 0 0 0 0 0 0 0 0 0 0 0 0 0 0 0 0 0 0 0 0 0 0 0 0 0 0 0 0 0 0 0 0 0 0 0 0 0 0
0 0 0 0 0 0 0 0 0 0 0 0 0 0 0 0 0 0 0 0 0 0 0 0 0 0 0 0 0 0 0 0 0 0 0 0 0 0 0 0 0 0 0
0 0 0 0 0 0 0 0 0 0 0 0 0 0 0 0 0 0 0 0 0 0 0 0 0 0 0 0 0 0 0 0 0 0 0 0 0 0 0 0 0 0 0
0 0 0 0 0 0 0 0 0 0 0 0 0 0 0 0 0 0 0 0 0 0 0 0 0 0 0 0 0 0 0 0 0 0 0 0 0 0 0 0 0 0 0
0 0 0 0 0 0 0 0 0 0 0 0 0 0 0 0 0 0 0 0 0 0 0 0 0 0 0 0 0 0 0 0 0 0 0 0 0 0 0 0 0 0 0
0 0 0 0 0 0 0 0 0 0 0 0 0 0 0 0 0 0 0 0 0 0 0 0 0 0 0 0 0 0 0 0 0 0 0 0 0 0 0 0 0 0 0
0 0 0 0 0 0 0 0 0 0 0 0 0 0 0 0 0 0 0 0 0 0 0 0 0 0 0 0 0 0 0 0 0 0 0 0 0 0 0 0 0 0 0
Wind_Speed_500mb
27 36 32 30 28 26 22 16 14 17 12 14 14 13 12 11 9 7 11 10 11 10 13 14 13 10 13 13 15 17 15 11 8 8 8 3 6 11 14 14 8 7 5
37 42 34 31 28 23 16 13 16 17 17 17 17 15 15 14 13 15 16 19 16 15 12 10 9 8 7 7 8 6 7 10 9 8 7 5 7 8 12 14 9 6 2
39 48 37 32 25 23 17 18 17 19 20 20 20 18 17 16 16 13 9 10 11 10 8 5 2 4 5 7 7 8 6 8 9 10 12 12 13 11 8 9 8 3 2
44 51 42 31 25 25 20 21 20 20 19 19 17 16 16 15 14 11 8 6 6 6 5 4 5 6 7 9 9 9 10 12 12 12 12 11 18 10 10 8 7 1 2
45 49 42 35 28 28 24 24 22 20 20 20 19 17 16 14 13 11 8 6 5 5 5 7 8 11 14 15 16 16 16 15 17 19 17 16 17 17 12 11 12 6 7
44 42 39 35 29 28 31 27 22 21 19 18 16 14 13 11 9 7 5 5 6 8 8 10 11 12 14 17 19 20 22 25 25 24 27 28 24 26 23 26 18 13 8
42 41 39 38 35 26 31 28 27 25 22 19 17 14 12 9 7 6 7 9 11 12 13 13 15 16 18 20 21 22 23 23 24 30 33 32 32 31 29 30 27 21 14
35 39 40 42 32 34 35 33 30 27 24 21 18 15 12 10 9 7 8 8 8 9 11 12 14 16 17 20 22 23 23 22 23 27 31 30 27 27 29 26 26 32 32
29 35 39 41 39 40 36 34 32 28 25 22 20 17 15 12 9 8 8 8 8 9 10 11 12 15 17 19 21 22 22 24 25 30 33 31 32 27 30 33 33 28 30
31 31 40 41 38 36 36 34 31 29 27 24 21 19 16 13 12 11 10 10 11 12 13 15 16 16 18 19 20 21 23 26 26 31 35 38 33 32 35 30 31 36 38
40 35 35 39 40 39 37 36 34 31 29 26 25 22 19 17 15 14 13 12 13 14 15 17 19 21 22 22 22 21 24 26 26 32 35 39 38 36 36 35 32 32 36
51 44 37 40 41 41 40 39 38 36 33 30 28 24 21 21 18 17 16 15 16 17 19 21 22 23 24 26 28 25 24 24 26 32 35 39 40 38 38 40 39 37 36
53 48 42 41 41 43 41 41 42 40 36 32 29 26 24 22 21 19 18 18 19 20 23 25 26 26 26 27 29 30 29 28 29 32 35 39 40 38 39 39 42 42 40
54 49 48 44 42 41 41 40 39 39 36 34 30 28 27 23 21 20 20 21 23 25 27 28 29 30 31 31 31 31 31 32 31 35 35 39 39 37 37 40 40 41 43
56 53 52 49 49 48 44 41 40 39 36 33 31 29 26 25 23 22 22 22 25 26 27 28 30 32 33 33 33 33 32 32 32 34 37 39 39 35 34 35 38 38 39
56 55 53 53 50 52 47 44 42 40 38 35 32 30 29 28 25 23 23 23 24 23 24 26 28 31 33 34 35 35 34 32 32 33 37 37 36 31 26 28 32 28 29
60 56 58 55 51 53 50 48 45 42 38 36 34 31 31 29 26 25 24 23 22 22 25 29 32 35 36 36 37 36 35 34 31 30 33 34 33 29 27 31 30 27 27
60 64 61 60 56 55 53 50 47 45 41 40 37 34 33 30 29 26 24 24 24 26 29 32 35 35 37 38 37 37 37 35 34 31 28 31 32 30 26 25 27 30 33
65 66 66 65 61 57 55 54 50 48 45 43 40 38 35 32 30 28 27 27 27 29 32 34 35 35 35 36 39 39 37 35 33 32 27 28 33 34 31 27 23 23 21
68 68 67 67 65 61 57 56 54 52 49 47 43 41 38 35 32 31 30 31 31 33 35 35 34 34 35 37 39 37 35 33 30 29 26 26 31 35 34 29 24 26 24
75 75 72 71 69 66 66 66 63 60 53 49 45 42 39 36 34 34 33 34 36 38 37 36 36 37 35 35 39 34 26 23 21 21 25 28 30 38 40 35 29 27 25
80 76 73 70 69 68 66 66 62 57 51 46 43 43 39 37 36 36 37 38 40 40 39 37 39 39 36 32 27 26 13 14 16 16 23 27 27 30 31 31 27 26 25
81 84 81 77 73 69 63 63 63 58 55 55 53 49 41 39 38 38 40 40 40 41 40 39 39 38 35 27 28 18 8 8 4 12 23 29 30 30 28 28 25 24 26
76 75 75 76 75 70 65 65 67 68 66 59 47 38 41 41 40 38 37 39 41 42 41 38 37 36 35 31 26 27 27 26 7 5 19 24 29 33 31 29 28 26 24
73 73 73 73 73 70 66 63 64 62 52 44 44 45 43 38 36 39 40 39 38 38 37 35 34 35 35 32 30 32 29 30 32 25 10 19 30 33 35 41 40 39 32
73 69 67 69 70 67 63 60 60 57 56 54 49 45 40 38 39 39 37 35 35 36 34 32 31 33 35 35 34 36 37 30 28 35 34 26 26 26 33 35 33 37 34
Wind_Direction_500mb
158 171 167 167 164 155 147 140 158 163 150 137 153 147 144 144 142 122 117 142 175 166 172 173 175 200 240 244 251 260 263 260 262 261 258 294 337 357 6 3 0 13 110
161 180 177 185 181 170 166 156 152 152 145 138 133 130 128 132 138 130 112 109 128 161 181 176 194 202 221 250 276 267 281 290 285 270 246 263 308 334 357 0 357 1 141
168 179 178 188 193 185 177 166 162 148 143 136 132 127 127 130 131 137 128 131 136 135 149 170 200 221 238 256 261 259 257 272 269 257 265 279 285 305 321 350 357 349 184
173 179 182 187 189 186 180 177 175 165 158 154 149 146 139 136 139 141 150 164 189 213 232 238 252 259 259 265 274 261 255 253 258 256 257 271 287 295 278 322 312 347 236
174 180 184 190 191 203 196 185 181 172 168 160 156 151 144 142 138 138 145 156 191 227 260 271 272 271 270 265 262 259 257 262 256 256 260 255 269 267 276 279 296 290 246
175 180 189 193 193 195 187 187 183 175 173 168 163 159 156 156 156 157 178 210 244 261 268 272 269 268 269 268 268 264 260 260 258 255 258 256 252 259 256 269 270 261 263
172 181 190 196 205 188 185 188 188 185 183 179 179 176 177 179 197 218 241 251 254 260 263 262 263 264 267 268 267 267 265 262 257 256 257 258 258 256 258 250 245 246 256
184 183 194 200 192 184 188 190 190 187 186 184 186 189 195 205 220 235 246 252 259 264 272 281 282 278 272 268 268 268 268 264 258 251 253 259 259 261 251 251 251 250 252
197 193 193 189 186 190 194 194 194 193 192 194 198 204 215 229 241 246 247 262 279 288 292 292 290 290 288 284 281 278 272 266 257 252 260 259 254 258 258 254 252 251 239
210 202 189 192 194 197 199 199 198 198 202 206 210 217 227 242 252 259 264 272 283 293 302 305 304 299 295 294 287 280 272 266 261 260 263 265 260 256 258 256 256 249 243
211 204 185 193 196 197 199 201 203 206 210 215 223 227 233 239 242 248 257 271 281 290 295 298 301 303 303 298 293 291 282 274 264 259 259 261 263 262 257 253 249 253 254
209 212 199 199 201 202 204 205 208 213 216 220 226 233 237 243 245 253 262 273 282 290 293 294 296 298 299 299 298 291 281 275 268 265 263 261 260 257 256 252 251 247 251
209 215 213 210 208 206 207 209 211 216 220 225 228 231 236 240 248 255 266 274 282 288 295 301 302 302 300 299 297 296 291 283 273 265 263 263 263 259 254 250 249 247 246
209 215 219 215 220 221 207 214 213 219 222 225 228 231 238 243 251 261 270 278 287 295 300 301 302 302 301 299 296 293 290 284 277 272 268 268 269 264 257 250 248 246 244
214 218 222 220 216 223 221 220 221 223 226 227 229 234 241 248 251 258 267 277 284 291 295 298 300 302 302 301 298 294 289 285 278 271 269 268 269 267 261 251 246 246 243
222 222 224 225 221 220 222 221 225 227 229 231 231 235 240 243 249 258 267 276 284 293 298 302 303 303 302 301 299 298 295 289 283 275 270 267 269 266 256 237 241 238 244
224 228 228 227 225 221 221 221 225 227 231 233 233 231 237 242 250 257 265 274 286 293 299 302 302 301 299 298 297 294 291 289 285 278 273 268 265 264 252 232 217 209 199
227 226 229 228 227 224 220 223 223 229 229 233 234 234 237 243 251 256 266 276 287 293 298 301 301 300 298 295 293 291 289 287 283 278 272 266 257 253 253 248 243 238 236
226 226 226 229 226 226 223 223 225 228 229 231 231 233 238 242 248 255 263 273 282 290 297 299 300 300 299 297 292 290 290 284 279 273 268 255 248 248 247 246 240 232 226
220 224 227 230 227 224 225 225 226 228 227 229 231 233 236 240 245 253 263 273 282 290 295 296 294 294 297 299 297 296 288 283 275 269 260 243 241 248 252 251 243 234 227
217 221 222 223 224 222 223 224 226 227 225 229 230 234 238 241 248 255 264 275 284 289 290 290 290 291 292 294 295 297 295 283 274 267 247 240 237 241 252 252 240 234 231
221 218 219 220 225 226 227 229 230 229 228 232 234 237 239 247 252 259 269 276 280 284 286 287 288 289 290 291 289 302 306 290 268 251 233 243 246 246 239 237 236 240 240
220 219 217 222 223 225 227 225 225 223 224 222 227 233 239 244 250 259 267 272 278 281 282 283 284 284 282 278 273 266 281 254 273 235 232 248 254 253 247 239 240 243 247
223 217 214 215 221 224 224 224 225 225 223 227 232 232 234 243 254 258 263 271 276 278 278 278 276 275 277 273 257 249 243 246 255 244 226 236 248 254 251 246 247 252 253
220 218 215 214 217 221 222 223 222 220 222 225 226 233 240 243 249 262 270 275 276 276 274 272 270 270 269 268 259 246 247 248 246 246 241 223 232 242 251 255 258 259 256
216 214 213 212 213 216 218 216 216 216 215 220 223 229 239 252 260 266 270 275 276 274 271 267 265 264 264 262 257 253 247 245 240 235 237 231 225 236 250 256 253 248 245
Wind_Speed_850mb
27 36 32 30 28 26 22 16 14 17 12 14 14 13 12 11 9 7 11 10 11 10 13 14 13 10 13 13 15 17 15 11 8 8 8 3 6 11 14 14 8 7 5
37 42 34 31 28 23 16 13 16 17 17 17 17 15 15 14 13 15 16 19 16 15 12 10 9 8 7 7 8 6 7 10 9 8 7 5 7 8 12 14 9 6 2
39 48 37 32 25 23 17 18 17 19 20 20 20 18 17 16 16 13 9 10 11 10 8 5 2 4 5 7 7 8 6 8 9 10 12 12 13 11 8 9 8 3 2
44 51 42 31 25 25 20 21 20 20 19 19 17 16 16 15 14 11 8 6 6 6 5 4 5 6 7 9 9 9 10 12 12 12 12 11 18 10 10 8 7 1 2
45 49 42 35 28 28 24 24 22 20 20 20 19 17 16 14 13 11 8 6 5 5 5 7 8 11 14 15 16 16 16 15 17 19 17 16 17 17 12 11 12 6 7
44 42 39 35 29 28 31 27 22 21 19 18 16 14 13 11 9 7 5 5 6 8 8 10 11 12 14 17 19 20 22 25 25 24 27 28 24 26 23 26 18 13 8
42 41 39 38 35 26 31 28 27 25 22 19 17 14 12 9 7 6 7 9 11 12 13 13 15 16 18 20 21 22 23 23 24 30 33 32 32 31 29 30 27 21 14
35 39 40 42 32 34 35 33 30 27 24 21 18 15 12 10 9 7 8 8 8 9 11 12 14 16 17 20 22 23 23 22 23 27 31 30 27 27 29 26 26 32 32
29 35 39 41 39 40 36 34 32 28 25 22 20 17 15 12 9 8 8 8 8 9 10 11 12 15 17 19 21 22 22 24 25 30 33 31 32 27 30 33 33 28 30
31 31 40 41 38 36 36 34 31 29 27 24 21 19 16 13 12 11 10 10 11 12 13 15 16 16 18 19 20 21 23 26 26 31 35 38 33 32 35 30 31 36 38
40 35 35 39 40 39 37 36 34 31 29 26 25 22 19 17 15 14 13 12 13 14 15 17 19 21 22 22 22 21 24 26 26 32 35 39 38 36 36 35 32 32 36
51 44 37 40 41 41 40 39 38 36 33 30 28 24 21 21 18 17 16 15 16 17 19 21 22 23 24 26 28 25 24 24 26 32 35 39 40 38 38 40 39 37 36
53 48 42 41 41 43 41 41 42 40 36 32 29 26 24 22 21 19 18 18 19 20 23 25 26 26 26 27 29 30 29 28 29 32 35 39 40 38 39 39 42 42 40
54 49 48 44 42 41 41 40 39 39 36 34 30 28 27 23 21 20 20 21 23 25 27 28 29 30 31 31 31 31 31 32 31 35 35 39 39 37 37 40 40 41 43
56 53 52 49 49 48 44 41 40 39 36 33 31 29 26 25 23 22 22 22 25 26 27 28 30 32 33 33 33 33 32 32 32 34 37 39 39 35 34 35 38 38 39
56 55 53 53 50 52 47 44 42 40 38 35 32 30 29 28 25 23 23 23 24 23 24 26 28 31 33 34 35 35 34 32 32 33 37 37 36 31 26 28 32 28 29
60 56 58 55 51 53 50 48 45 42 38 36 34 31 31 29 26 25 24 23 22 22 25 29 32 35 36 36 37 36 35 34 31 30 33 34 33 29 27 31 30 27 27
60 64 61 60 56 55 53 50 47 45 41 40 37 34 33 30 29 26 24 24 24 26 29 32 35 35 37 38 37 37 37 35 34 31 28 31 32 30 26 25 27 30 33
65 66 66 65 61 57 55 54 50 48 45 43 40 38 35 32 30 28 27 27 27 29 32 34 35 35 35 36 39 39 37 35 33 32 27 28 33 34 31 27 23 23 21
68 68 67 67 65 61 57 56 54 52 49 47 43 41 38 35 32 31 30 31 31 33 35 35 34 34 35 37 39 37 35 33 30 29 26 26 31 35 34 29 24 26 24
75 75 72 71 69 66 66 66 63 60 53 49 45 42 39 36 34 34 33 34 36 38 37 36 36 37 35 35 39 34 26 23 21 21 25 28 30 38 40 35 29 27 25
80 76 73 70 69 68 66 66 62 57 51 46 43 43 39 37 36 36 37 38 40 40 39 37 39 39 36 32 27 26 13 14 16 16 23 27 27 30 31 31 27 26 25
81 84 81 77 73 69 63 63 63 58 55 55 53 49 41 39 38 38 40 40 40 41 40 39 39 38 35 27 28 18 8 8 4 12 23 29 30 30 28 28 25 24 26
76 75 75 76 75 70 65 65 67 68 66 59 47 38 41 41 40 38 37 39 41 42 41 38 37 36 35 31 26 27 27 26 7 5 19 24 29 33 31 29 28 26 24
73 73 73 73 73 70 66 63 64 62 52 44 44 45 43 38 36 39 40 39 38 38 37 35 34 35 35 32 30 32 29 30 32 25 10 19 30 33 35 41 40 39 32
73 69 67 69 70 67 63 60 60 57 56 54 49 45 40 38 39 39 37 35 35 36 34 32 31 33 35 35 34 36 37 30 28 35 34 26 26 26 33 35 33 37 34
Wind_Direction_850mb
158 171 167 167 164 155 147 140 158 163 150 137 153 147 144 144 142 122 117 142 175 166 172 173 175 200 240 244 251 260 263 260 262 261 258 294 337 357 6 3 0 13 110
161 180 177 185 181 170 166 156 152 152 145 138 133 130 128 132 138 130 112 109 128 161 181 176 194 202 221 250 276 267 281 290 285 270 246 263 308 334 357 0 357 1 141
168 179 178 188 193 185 177 166 162 148 143 136 132 127 127 130 131 137 128 131 136 135 149 170 200 221 238 256 261 259 257 272 269 257 265 279 285 305 321 350 357 349 184
173 179 182 187 189 186 180 177 175 165 158 154 149 146 139 136 139 141 150 164 189 213 232 238 252 259 259 265 274 261 255 253 258 256 257 271 287 295 278 322 312 347 236
174 180 184 190 191 203 196 185 181 172 168 160 156 151 144 142 138 138 145 156 191 227 260 271 272 271 270 265 262 259 257 262 256 256 260 255 269 267 276 279 296 290 246
175 180 189 193 193 195 187 187 183 175 173 168 163 159 156 156 156 157 178 210 244 261 268 272 269 268 269 268 268 264 260 260 258 255 258 256 252 259 256 269 270 261 263
172 181 190 196 205 188 185 188 188 185 183 179 179 176 177 179 197 218 241 251 254 260 263 262 263 264 267 268 267 267 265 262 257 256 257 258 258 256 258 250 245 246 256
184 183 194 200 192 184 188 190 190 187 186 184 186 189 195 205 220 235 246 252 259 264 272 281 282 278 272 268 268 268 268 264 258 251 253 259 259 261 251 251 251 250 252
197 193 193 189 186 190 194 194 194 193 192 194 198 204 215 229 241 246 247 262 279 288 292 292 290 290 288 284 281 278 272 266 257 252 260 259 254 258 258 254 252 251 239
210 202 189 192 194 197 199 199 198 198 202 206 210 217 227 242 252 259 264 272 283 293 302 305 304 299 295 294 287 280 272 266 261 260 263 265 260 256 258 256 256 249 243
211 204 185 193 196 197 199 201 203 206 210 215 223 227 233 239 242 248 257 271 281 290 295 298 301 303 303 298 293 291 282 274 264 259 259 261 263 262 257 253 249 253 254
209 212 199 199 201 202 204 205 208 213 216 220 226 233 237 243 245 253 262 273 282 290 293 294 296 298 299 299 298 291 281 275 268 265 263 261 260 257 256 252 251 247 251
209 215 213 210 208 206 207 209 211 216 220 225 228 231 236 240 248 255 266 274 282 288 295 301 302 302 300 299 297 296 291 283 273 265 263 263 263 259 254 250 249 247 246
209 215 219 215 220 221 207 214 213 219 222 225 228 231 238 243 251 261 270 278 287 295 300 301 302 302 301 299 296 293 290 284 277 272 268 268 269 264 257 250 248 246 244
214 218 222 220 216 223 221 220 221 223 226 227 229 234 241 248 251 258 267 277 284 291 295 298 300 302 302 301 298 294 289 285 278 271 269 268 269 267 261 251 246 246 243
222 222 224 225 221 220 222 221 225 227 229 231 231 235 240 243 249 258 267 276 284 293 298 302 303 303 302 301 299 298 295 289 283 275 270 267 269 266 256 237 241 238 244
224 228 228 227 225 221 221 221 225 227 231 233 233 231 237 242 250 257 265 274 286 293 299 302 302 301 299 298 297 294 291 289 285 278 273 268 265 264 252 232 217 209 199
227 226 229 228 227 224 220 223 223 229 229 233 234 234 237 243 251 256 266 276 287 293 298 301 301 300 298 295 293 291 289 287 283 278 272 266 257 253 253 248 243 238 236
226 226 226 229 226 226 223 223 225 228 229 231 231 233 238 242 248 255 263 273 282 290 297 299 300 300 299 297 292 290 290 284 279 273 268 255 248 248 247 246 240 232 226
220 224 227 230 227 224 225 225 226 228 227 229 231 233 236 240 245 253 263 273 282 290 295 296 294 294 297 299 297 296 288 283 275 269 260 243 241 248 252 251 243 234 227
217 221 222 223 224 222 223 224 226 227 225 229 230 234 238 241 248 255 264 275 284 289 290 290 290 291 292 294 295 297 295 283 274 267 247 240 237 241 252 252 240 234 231
221 218 219 220 225 226 227 229 230 229 228 232 234 237 239 247 252 259 269 276 280 284 286 287 288 289 290 291 289 302 306 290 268 251 233 243 246 246 239 237 236 240 240
220 219 217 222 223 225 227 225 225 223 224 222 227 233 239 244 250 259 267 272 278 281 282 283 284 284 282 278 273 266 281 254 273 235 232 248 254 253 247 239 240 243 247
223 217 214 215 221 224 224 224 225 225 223 227 232 232 234 243 254 258 263 271 276 278 278 278 276 275 277 273 257 249 243 246 255 244 226 236 248 254 251 246 247 252 253
220 218 215 214 217 221 222 223 222 220 222 225 226 233 240 243 249 262 270 275 276 276 274 272 270 270 269 268 259 246 247 248 246 246 241 223 232 242 251 255 258 259 256
216 214 213 212 213 216 218 216 216 216 215 220 223 229 239 252 260 266 270 275 276 274 271 267 265 264 264 262 257 253 247 245 240 235 237 231 225 236 250 256 253 248 245